MARKET Weather Reports


time (UTC)temp
F
wind
direction
speed
knots
gust
knots
rain 1hr
in
rain 24hr
in
rain mn
in
humidity
%
barometer
mb
20260503020712 42 4 17.4 20.9 0.00 0.00 0.00 88 1008.8
20260503014712 42 4 18.2 22.6 0.00 0.00 0.00 87 1008.7
20260503012712 42 357 18.2 20.9 0.00 0.00 0.00 87 1008.5
20260503010712 42 344 16.5 19.1 0.00 0.00 0.00 90 1008.2
20260503004712 42 334 16.5 19.1 0.00 0.00 0.00 91 1008.1
20260503002712 43 334 18.2 20.9 0.00 0.00 0.00 87 1007.8
20260503000712 44 327 15.6 18.2 0.00 0.00 0.00 85 1007.7
20260502234712 45 310 13.0 13.9 0.00 0.00 0.00 79 1007.6
20260502232711 44 315 8.7 13.0 0.00 0.00 0.00 80 1007.8
20260502230711 45 337 7.0 7.8 0.00 0.00 0.00 76 1007.4
20260502224712 45 345 7.8 8.7 0.00 0.00 0.00 75 1007.4
20260502222712 43 332 9.6 11.3 0.00 0.00 0.00 84 1007.4
20260502220712 44 328 13.9 15.6 0.00 0.00 0.00 81 1007.4
20260502214711 45 314 13.9 15.6 0.00 0.00 0.00 80 1007.2
20260502212710 44 310 13.0 13.9 0.00 0.00 0.00 82 1007.0
20260502210711 46 308 10.4 12.2 0.00 0.00 0.00 77 1006.9
20260502204711 46 319 11.3 13.0 0.00 0.00 0.00 77 1006.7
20260502202710 47 315 15.6 17.4 0.00 0.00 0.00 73 1006.7
20260502200711 49 315 13.9 15.6 0.00 0.00 0.00 64 1006.4
20260502194710 51 315 13.0 14.8 0.00 0.00 0.00 58 1006.1
20260502192711 51 314 13.0 14.8 0.00 0.00 0.00 60 1006.2
20260502190710 53 299 15.6 19.1 0.00 0.00 0.00 56 1005.9
20260502184710 64 254 17.4 18.2 0.00 0.00 0.00 35 1005.6
20260502182710 65 264 18.2 20.0 0.00 0.00 0.00 35 1005.6
20260502180710 60 268 14.8 17.4 0.00 0.00 0.00 41 1005.6
20260502162709 58 221 14.8 18.2 0.00 0.00 0.00 50 1006.0
20260502160710 64 217 16.5 19.1 0.00 0.00 0.00 38 1006.2
20260502150710 56 224 7.8 10.4 0.00 0.00 0.00 52 1007.3
20260502130709 59 234 14.8 16.5 0.00 0.00 0.00 43 1008.4
20260502122709 58 247 12.2 14.8 0.00 0.00 0.00 40 1008.9
20260502120709 54 246 13.0 17.4 0.00 0.00 0.00 52 1009.2
20260502114709 56 247 11.3 14.8 0.00 0.00 0.00 46 1009.3
20260502112708 56 239 6.1 9.6 0.00 0.00 0.00 45 1009.5
20260502110708 56 237 7.0 8.7 0.00 0.00 0.00 46 1009.8
20260502104708 55 238 5.2 7.8 0.00 0.00 0.00 49 1010.0
20260502102708 54 220 3.5 4.3 0.00 0.00 0.00 53 1010.2
20260502100708 54 228 5.2 7.0 0.00 0.00 0.00 50 1010.3
20260502090708 50 197 8.7 10.4 0.00 0.00 0.00 60 1010.7
20260502070708 50 244 17.4 19.1 0.00 0.00 0.00 59 1011.3
20260502064707 48 245 16.5 18.2 0.00 0.00 0.00 65 1011.5
20260502062707 48 244 20.0 21.7 0.00 0.00 0.00 65 1011.5
20260502060708 48 246 22.6 24.3 0.00 0.00 0.00 64 1011.4
20260502054707 48 250 22.6 24.3 0.00 0.00 0.00 63 1011.4
20260502052707 48 249 22.6 23.5 0.00 0.00 0.00 64 1011.4
20260502050707 47 255 19.1 21.7 0.00 0.00 0.00 67 1011.6
20260502044707 47 256 18.2 20.9 0.00 0.00 0.00 66 1011.8
20260502042707 48 254 19.1 20.9 0.00 0.00 0.00 62 1011.7
20260502040707 48 252 20.0 21.7 0.00 0.00 0.00 65 1011.7
20260502034708 48 251 20.9 22.6 0.00 0.00 0.00 64 1011.7
20260502032706 48 252 20.0 22.6 0.00 0.00 0.00 64 1011.9
20260502030708 48 251 20.0 22.6 0.00 0.00 0.00 65 1012.0
20260502024707 49 252 21.7 23.5 0.00 0.00 0.00 63 1012.2
20260502022707 49 255 20.0 22.6 0.00 0.00 0.00 64 1012.2